Mason City, IA

4:58 PM CDT on May 26, 2018 (GMT -0500)
Mason City Municipal

Weather History for KMCW - February, 2012

Change the Weather History Date:

Monday, February 27, 2012

  Actual Average Record
Temperature  
Mean Temperature 26 °F 25 °F  
Max Temperature 35 °F 34 °F 65 °F (1896)
Min Temperature 17 °F 17 °F -18 °F (2015)
Degree Days  
Heating Degree Days 39 40  
Month to date heating degree days 1008 1201  
Since 1 July heating degree days 4960 5812  
Cooling Degree Days 0 0  
Month to date cooling degree days 0 0  
Year to date cooling degree days 0 0  
Moisture  
Dew Point 14 °F    
Average Humidity 68    
Maximum Humidity 88    
Minimum Humidity 47    
Precipitation  
Precipitation 0.00 in 0.05 in 1.62 in (1948)
Month to date precipitation 0.13 0.95  
Year to date precipitation 1.03 1.77  
Snow  
Snow 0.00 in 0.30 in 3.00 in (1978)
Month to date snowfall 2.4 7.5  
Since 1 July snowfall 17.8 32.3  
Snow Depth 0.00 in    
Sea Level Pressure  
Sea Level Pressure 30.39 in    
Wind  
Wind Speed 11 mph (WNW)    
Max Wind Speed 24 mph    
Max Gust Speed 30 mph    
Visibility 10 miles    
Events      
T = Trace of Precipitation, MM = Missing Value Source: NWS Daily Summary

Daily Weather History Graph

Daily Weather History Graph

Search for Another Location

Airport or City:

Astronomy

Feb. 27, 2012 Rise Set
Actual Time 6:53 AM CST 5:59 PM CST
Civil Twilight 6:24 AM CST 6:28 PM CST
Nautical Twilight 5:51 AM CST 7:01 PM CST
Astronomical Twilight 5:19 AM CST 7:33 PM CST
Moon 9:12 AM CST (2/27) No Moon Set
Length of Visible Light 12h 03m
Length of Day
11h 05m
Waxing Crescent, 29% of the Moon is Illuminated
Feb 27
Waxing Crescent
Feb 29
First Quarter
Mar 8
Full
Mar 14
Last Quarter
Mar 22
New

Hourly Weather History & Observations

Time (CST) Temp. Windchill Dew Point Humidity Pressure Visibility Wind Dir Wind Speed Gust Speed Precip Events Conditions
12:53 AM 21.0 °F 5.7 °F 15.1 °F 78% 30.16 in 10.0 mi West 19.6 mph - N/A   Clear
1:53 AM 21.0 °F 6.6 °F 15.1 °F 78% 30.19 in 10.0 mi West 17.3 mph - N/A   Partly Cloudy
2:53 AM 19.9 °F 3.9 °F 14.0 °F 78% 30.22 in 10.0 mi West 20.7 mph 27.6 mph N/A   Mostly Cloudy
3:53 AM 21.0 °F 5.4 °F 14.0 °F 74% 30.25 in 10.0 mi West 20.7 mph 27.6 mph N/A   Overcast
4:53 AM 19.9 °F 4.8 °F 12.9 °F 74% 30.30 in 10.0 mi WNW 18.4 mph 25.3 mph N/A   Mostly Cloudy
5:40 AM 17.6 °F 2.2 °F 12.2 °F 79% 30.29 in 10.0 mi WNW 17.3 mph 24.2 mph N/A   Scattered Clouds
5:48 AM 17.6 °F 1.7 °F 12.2 °F 79% 30.29 in 10.0 mi NW 18.4 mph 25.3 mph N/A   Mostly Cloudy
5:53 AM 18.0 °F 3.6 °F 12.0 °F 78% 30.34 in 10.0 mi WNW 15.0 mph 25.3 mph N/A   Mostly Cloudy
6:53 AM 18.0 °F 3.6 °F 12.0 °F 78% 30.37 in 10.0 mi WNW 15.0 mph - N/A   Overcast
7:48 AM 17.6 °F 1.7 °F 10.4 °F 73% 30.34 in 10.0 mi NW 18.4 mph - N/A   Overcast
7:53 AM 18.0 °F 2.6 °F 10.9 °F 74% 30.39 in 10.0 mi NW 17.3 mph - N/A   Overcast
8:53 AM 19.0 °F 3.2 °F 10.9 °F 71% 30.45 in 10.0 mi NW 19.6 mph 28.8 mph N/A   Overcast
9:53 AM 21.0 °F 7.6 °F 12.0 °F 68% 30.47 in 10.0 mi WNW 15.0 mph 24.2 mph N/A   Overcast
10:21 AM 21.2 °F 7.8 °F 12.2 °F 68% 30.42 in 10.0 mi WNW 15.0 mph - N/A   Scattered Clouds
10:53 AM 24.1 °F 11.0 °F 12.9 °F 62% 30.45 in 10.0 mi NW 16.1 mph - N/A   Clear
11:53 AM 28.0 °F 16.5 °F 14.0 °F 56% 30.49 in 10.0 mi WNW 15.0 mph - N/A   Clear
12:53 PM 30.9 °F 19.8 °F 14.0 °F 50% 30.48 in 10.0 mi NW 16.1 mph - N/A   Clear
1:53 PM 34.0 °F 26.0 °F 16.0 °F 48% 30.45 in 10.0 mi NW 10.4 mph - N/A   Clear
2:53 PM 34.0 °F 26.0 °F 15.1 °F 46% 30.46 in 10.0 mi NW 10.4 mph - N/A   Clear
3:53 PM 34.0 °F 26.6 °F 15.1 °F 46% 30.46 in 10.0 mi NW 9.2 mph - N/A   Clear
4:53 PM 33.1 °F 26.1 °F 16.0 °F 50% 30.46 in 10.0 mi West 8.1 mph - N/A   Clear
5:53 PM 28.9 °F 25.2 °F 16.0 °F 58% 30.46 in 10.0 mi WNW 3.5 mph - N/A   Clear
6:53 PM 25.0 °F - 18.0 °F 75% 30.45 in 10.0 mi Calm Calm - N/A   Clear
7:53 PM 23.0 °F 18.4 °F 17.1 °F 78% 30.45 in 10.0 mi South 3.5 mph - N/A   Clear
8:53 PM 21.0 °F - 17.1 °F 85% 30.45 in 10.0 mi Calm Calm - N/A   Clear
9:53 PM 23.0 °F - 19.0 °F 85% 30.43 in 10.0 mi Calm Calm - N/A   Mostly Cloudy
10:53 PM 21.9 °F - 18.0 °F 85% 30.43 in 10.0 mi Calm Calm - N/A   Overcast
11:53 PM 25.0 °F - 21.0 °F 85% 30.41 in 10.0 mi Calm Calm - N/A   Overcast